owner,sensor,date,latitude,longitude,air_temperature,qcFlag 
COMPS,ioos:station:USF.COMPS:TAR:1,2014-02-01T00:00:00Z,28.1560,-82.7580,14.06,1111122 
COMPS,ioos:station:USF.COMPS:TAR:1,2014-02-01T00:06:00Z,28.1560,-82.7580,14.13,1111122 
COMPS,ioos:station:USF.COMPS:TAR:1,2014-02-01T00:12:00Z,28.1560,-82.7580,14.13,1111122 
COMPS,ioos:station:USF.COMPS:TAR:1,2014-02-01T00:18:00Z,28.1560,-82.7580,14.13,1111122 
COMPS,ioos:station:USF.COMPS:TAR:1,2014-02-01T00:24:00Z,28.1560,-82.7580,14.27,1111122 
COMPS,ioos:station:USF.COMPS:TAR:1,2014-02-01T00:30:00Z,28.1560,-82.7580,14.26,1111122 
COMPS,ioos:station:USF.COMPS:TAR:1,2014-02-01T00:36:00Z,28.1560,-82.7580,14.26,1111122 
COMPS,ioos:station:USF.COMPS:TAR:1,2014-02-01T00:42:00Z,28.1560,-82.7580,14.34,1111122 
COMPS,ioos:station:USF.COMPS:TAR:1,2014-02-01T00:48:00Z,28.1560,-82.7580,14.4,1111122 
COMPS,ioos:station:USF.COMPS:TAR:1,2014-02-01T00:54:00Z,28.1560,-82.7580,14.4,1111122 
COMPS,ioos:station:USF.COMPS:TAR:1,2014-02-01T01:00:00Z,28.1560,-82.7580,14.4,1111122 
COMPS,ioos:station:USF.COMPS:TAR:1,2014-02-01T01:06:00Z,28.1560,-82.7580,14.52,1111122 
COMPS,ioos:station:USF.COMPS:TAR:1,2014-02-01T01:12:00Z,28.1560,-82.7580,14.53,1111122 
COMPS,ioos:station:USF.COMPS:TAR:1,2014-02-01T01:18:00Z,28.1560,-82.7580,14.56,1111122 
COMPS,ioos:station:USF.COMPS:TAR:1,2014-02-01T01:24:00Z,28.1560,-82.7580,14.75,1111122 
COMPS,ioos:station:USF.COMPS:TAR:1,2014-02-01T01:30:00Z,28.1560,-82.7580,14.67,1111122 
COMPS,ioos:station:USF.COMPS:TAR:1,2014-02-01T01:36:00Z,28.1560,-82.7580,14.77,1111122 
COMPS,ioos:station:USF.COMPS:TAR:1,2014-02-01T01:42:00Z,28.1560,-82.7580,14.8,1111122 
COMPS,ioos:station:USF.COMPS:TAR:1,2014-02-01T01:48:00Z,28.1560,-82.7580,14.8,1111122 
COMPS,ioos:station:USF.COMPS:TAR:1,2014-02-01T01:54:00Z,28.1560,-82.7580,14.8,1111122 
COMPS,ioos:station:USF.COMPS:TAR:1,2014-02-01T02:00:00Z,28.1560,-82.7580,14.8,1111122 
COMPS,ioos:station:USF.COMPS:TAR:1,2014-02-01T02:06:00Z,28.1560,-82.7580,14.8,1111122 
COMPS,ioos:station:USF.COMPS:TAR:1,2014-02-01T02:12:00Z,28.1560,-82.7580,14.8,1111122 
COMPS,ioos:station:USF.COMPS:TAR:1,2014-02-01T02:18:00Z,28.1560,-82.7580,14.8,1111122 
COMPS,ioos:station:USF.COMPS:TAR:1,2014-02-01T02:24:00Z,28.1560,-82.7580,15.0,1111122 
COMPS,ioos:station:USF.COMPS:TAR:1,2014-02-01T02:30:00Z,28.1560,-82.7580,14.94,1111122 
COMPS,ioos:station:USF.COMPS:TAR:1,2014-02-01T02:36:00Z,28.1560,-82.7580,14.94,1111122 
COMPS,ioos:station:USF.COMPS:TAR:1,2014-02-01T02:42:00Z,28.1560,-82.7580,14.95,1111122 
COMPS,ioos:station:USF.COMPS:TAR:1,2014-02-01T02:48:00Z,28.1560,-82.7580,15.07,1111122 
COMPS,ioos:station:USF.COMPS:TAR:1,2014-02-01T02:54:00Z,28.1560,-82.7580,15.08,1111122 
COMPS,ioos:station:USF.COMPS:TAR:1,2014-02-01T03:00:00Z,28.1560,-82.7580,15.08,1111122 
COMPS,ioos:station:USF.COMPS:TAR:1,2014-02-01T03:06:00Z,28.1560,-82.7580,15.08,1111122 
COMPS,ioos:station:USF.COMPS:TAR:1,2014-02-01T03:12:00Z,28.1560,-82.7580,15.16,1111122 
COMPS,ioos:station:USF.COMPS:TAR:1,2014-02-01T03:18:00Z,28.1560,-82.7580,15.2,1111122 
COMPS,ioos:station:USF.COMPS:TAR:1,2014-02-01T03:24:00Z,28.1560,-82.7580,15.27,1111122 
COMPS,ioos:station:USF.COMPS:TAR:1,2014-02-01T03:30:00Z,28.1560,-82.7580,15.21,1111122 
COMPS,ioos:station:USF.COMPS:TAR:1,2014-02-01T03:36:00Z,28.1560,-82.7580,15.21,1111122 
COMPS,ioos:station:USF.COMPS:TAR:1,2014-02-01T03:42:00Z,28.1560,-82.7580,15.21,1111122 
COMPS,ioos:station:USF.COMPS:TAR:1,2014-02-01T03:48:00Z,28.1560,-82.7580,15.23,1111122 
COMPS,ioos:station:USF.COMPS:TAR:1,2014-02-01T03:54:00Z,28.1560,-82.7580,15.22,1111122 
COMPS,ioos:station:USF.COMPS:TAR:1,2014-02-01T04:00:00Z,28.1560,-82.7580,15.21,1111122 
COMPS,ioos:station:USF.COMPS:TAR:1,2014-02-01T04:06:00Z,28.1560,-82.7580,15.21,1111122 
COMPS,ioos:station:USF.COMPS:TAR:1,2014-02-01T04:12:00Z,28.1560,-82.7580,15.21,1111122 
COMPS,ioos:station:USF.COMPS:TAR:1,2014-02-01T04:18:00Z,28.1560,-82.7580,15.21,1111122 
COMPS,ioos:station:USF.COMPS:TAR:1,2014-02-01T04:24:00Z,28.1560,-82.7580,15.32,1111122 
COMPS,ioos:station:USF.COMPS:TAR:1,2014-02-01T04:30:00Z,28.1560,-82.7580,15.25,1111122 
COMPS,ioos:station:USF.COMPS:TAR:1,2014-02-01T04:36:00Z,28.1560,-82.7580,15.33,1111122 
COMPS,ioos:station:USF.COMPS:TAR:1,2014-02-01T04:42:00Z,28.1560,-82.7580,15.23,1111122 
COMPS,ioos:station:USF.COMPS:TAR:1,2014-02-01T04:48:00Z,28.1560,-82.7580,15.21,1111122 
COMPS,ioos:station:USF.COMPS:TAR:1,2014-02-01T04:54:00Z,28.1560,-82.7580,15.21,1111122 
COMPS,ioos:station:USF.COMPS:TAR:1,2014-02-01T05:00:00Z,28.1560,-82.7580,15.21,1111122 
COMPS,ioos:station:USF.COMPS:TAR:1,2014-02-01T05:06:00Z,28.1560,-82.7580,15.21,1111122 
COMPS,ioos:station:USF.COMPS:TAR:1,2014-02-01T05:12:00Z,28.1560,-82.7580,15.21,1111122 
COMPS,ioos:station:USF.COMPS:TAR:1,2014-02-01T05:18:00Z,28.1560,-82.7580,15.25,1111122 
COMPS,ioos:station:USF.COMPS:TAR:1,2014-02-01T05:24:00Z,28.1560,-82.7580,15.48,1111122 
COMPS,ioos:station:USF.COMPS:TAR:1,2014-02-01T05:30:00Z,28.1560,-82.7580,15.35,1111122 
COMPS,ioos:station:USF.COMPS:TAR:1,2014-02-01T05:36:00Z,28.1560,-82.7580,15.34,1111122 
COMPS,ioos:station:USF.COMPS:TAR:1,2014-02-01T05:42:00Z,28.1560,-82.7580,15.35,1111122 
COMPS,ioos:station:USF.COMPS:TAR:1,2014-02-01T05:48:00Z,28.1560,-82.7580,15.35,1111122 
COMPS,ioos:station:USF.COMPS:TAR:1,2014-02-01T05:54:00Z,28.1560,-82.7580,15.35,1111122 
COMPS,ioos:station:USF.COMPS:TAR:1,2014-02-01T06:00:00Z,28.1560,-82.7580,15.35,1111122 
COMPS,ioos:station:USF.COMPS:TAR:1,2014-02-01T06:06:00Z,28.1560,-82.7580,15.37,1111122 
COMPS,ioos:station:USF.COMPS:TAR:1,2014-02-01T06:12:00Z,28.1560,-82.7580,15.46,1111122 
COMPS,ioos:station:USF.COMPS:TAR:1,2014-02-01T06:18:00Z,28.1560,-82.7580,15.48,1111122 
COMPS,ioos:station:USF.COMPS:TAR:1,2014-02-01T06:24:00Z,28.1560,-82.7580,15.63,1111122 
COMPS,ioos:station:USF.COMPS:TAR:1,2014-02-01T06:30:00Z,28.1560,-82.7580,15.48,1111122 
COMPS,ioos:station:USF.COMPS:TAR:1,2014-02-01T06:36:00Z,28.1560,-82.7580,15.48,1111122 
COMPS,ioos:station:USF.COMPS:TAR:1,2014-02-01T06:42:00Z,28.1560,-82.7580,15.55,1111122 
COMPS,ioos:station:USF.COMPS:TAR:1,2014-02-01T06:48:00Z,28.1560,-82.7580,15.62,1111122 
COMPS,ioos:station:USF.COMPS:TAR:1,2014-02-01T06:54:00Z,28.1560,-82.7580,15.62,1111122 
COMPS,ioos:station:USF.COMPS:TAR:1,2014-02-01T07:00:00Z,28.1560,-82.7580,15.63,1111122 
COMPS,ioos:station:USF.COMPS:TAR:1,2014-02-01T07:06:00Z,28.1560,-82.7580,15.72,1111122 
COMPS,ioos:station:USF.COMPS:TAR:1,2014-02-01T07:12:00Z,28.1560,-82.7580,15.76,1111122 
COMPS,ioos:station:USF.COMPS:TAR:1,2014-02-01T07:18:00Z,28.1560,-82.7580,15.76,1111122 
COMPS,ioos:station:USF.COMPS:TAR:1,2014-02-01T07:24:00Z,28.1560,-82.7580,15.99,1111122 
COMPS,ioos:station:USF.COMPS:TAR:1,2014-02-01T07:30:00Z,28.1560,-82.7580,15.9,1111122 
COMPS,ioos:station:USF.COMPS:TAR:1,2014-02-01T07:36:00Z,28.1560,-82.7580,16.03,1111122 
COMPS,ioos:station:USF.COMPS:TAR:1,2014-02-01T07:42:00Z,28.1560,-82.7580,16.14,1111122 
COMPS,ioos:station:USF.COMPS:TAR:1,2014-02-01T07:48:00Z,28.1560,-82.7580,16.28,1111122 
COMPS,ioos:station:USF.COMPS:TAR:1,2014-02-01T07:54:00Z,28.1560,-82.7580,16.3,1111122 
COMPS,ioos:station:USF.COMPS:TAR:1,2014-02-01T08:00:00Z,28.1560,-82.7580,16.3,1111122 
COMPS,ioos:station:USF.COMPS:TAR:1,2014-02-01T08:06:00Z,28.1560,-82.7580,16.34,1111122 
COMPS,ioos:station:USF.COMPS:TAR:1,2014-02-01T08:12:00Z,28.1560,-82.7580,16.41,1111122 
COMPS,ioos:station:USF.COMPS:TAR:1,2014-02-01T08:18:00Z,28.1560,-82.7580,16.52,1111122 
COMPS,ioos:station:USF.COMPS:TAR:1,2014-02-01T08:24:00Z,28.1560,-82.7580,16.69,1111122 
COMPS,ioos:station:USF.COMPS:TAR:1,2014-02-01T08:30:00Z,28.1560,-82.7580,16.57,1111122 
COMPS,ioos:station:USF.COMPS:TAR:1,2014-02-01T08:36:00Z,28.1560,-82.7580,16.6,1111122 
COMPS,ioos:station:USF.COMPS:TAR:1,2014-02-01T08:42:00Z,28.1560,-82.7580,16.39,1111122 
COMPS,ioos:station:USF.COMPS:TAR:1,2014-02-01T08:48:00Z,28.1560,-82.7580,16.3,1111122 
COMPS,ioos:station:USF.COMPS:TAR:1,2014-02-01T08:54:00Z,28.1560,-82.7580,16.31,1111122 
COMPS,ioos:station:USF.COMPS:TAR:1,2014-02-01T09:00:00Z,28.1560,-82.7580,16.44,1111122 
COMPS,ioos:station:USF.COMPS:TAR:1,2014-02-01T09:06:00Z,28.1560,-82.7580,16.44,1111122 
COMPS,ioos:station:USF.COMPS:TAR:1,2014-02-01T09:12:00Z,28.1560,-82.7580,16.44,1111122 
COMPS,ioos:station:USF.COMPS:TAR:1,2014-02-01T09:18:00Z,28.1560,-82.7580,16.44,1111122 
COMPS,ioos:station:USF.COMPS:TAR:1,2014-02-01T09:24:00Z,28.1560,-82.7580,16.43,1111122 
COMPS,ioos:station:USF.COMPS:TAR:1,2014-02-01T09:30:00Z,28.1560,-82.7580,16.33,1111122 
COMPS,ioos:station:USF.COMPS:TAR:1,2014-02-01T09:36:00Z,28.1560,-82.7580,16.44,1111122 
COMPS,ioos:station:USF.COMPS:TAR:1,2014-02-01T09:42:00Z,28.1560,-82.7580,16.57,1111122 
COMPS,ioos:station:USF.COMPS:TAR:1,2014-02-01T09:48:00Z,28.1560,-82.7580,16.6,1111122 
COMPS,ioos:station:USF.COMPS:TAR:1,2014-02-01T09:54:00Z,28.1560,-82.7580,16.84,1111122 
COMPS,ioos:station:USF.COMPS:TAR:1,2014-02-01T10:00:00Z,28.1560,-82.7580,17.08,1111122 
COMPS,ioos:station:USF.COMPS:TAR:1,2014-02-01T10:06:00Z,28.1560,-82.7580,17.22,1111122 
COMPS,ioos:station:USF.COMPS:TAR:1,2014-02-01T10:12:00Z,28.1560,-82.7580,17.26,1111122 
COMPS,ioos:station:USF.COMPS:TAR:1,2014-02-01T10:18:00Z,28.1560,-82.7580,17.39,1111122 
COMPS,ioos:station:USF.COMPS:TAR:1,2014-02-01T10:24:00Z,28.1560,-82.7580,17.57,1111122 
COMPS,ioos:station:USF.COMPS:TAR:1,2014-02-01T10:30:00Z,28.1560,-82.7580,17.39,1111122 
COMPS,ioos:station:USF.COMPS:TAR:1,2014-02-01T10:36:00Z,28.1560,-82.7580,17.34,1111122 
COMPS,ioos:station:USF.COMPS:TAR:1,2014-02-01T10:42:00Z,28.1560,-82.7580,17.28,1111122 
COMPS,ioos:station:USF.COMPS:TAR:1,2014-02-01T10:48:00Z,28.1560,-82.7580,17.39,1111122 
COMPS,ioos:station:USF.COMPS:TAR:1,2014-02-01T10:54:00Z,28.1560,-82.7580,17.39,1111122 
COMPS,ioos:station:USF.COMPS:TAR:1,2014-02-01T11:00:00Z,28.1560,-82.7580,17.41,1111122 
COMPS,ioos:station:USF.COMPS:TAR:1,2014-02-01T11:06:00Z,28.1560,-82.7580,17.48,1111122 
COMPS,ioos:station:USF.COMPS:TAR:1,2014-02-01T11:12:00Z,28.1560,-82.7580,17.39,1111122 
COMPS,ioos:station:USF.COMPS:TAR:1,2014-02-01T11:18:00Z,28.1560,-82.7580,17.33,1111122 
COMPS,ioos:station:USF.COMPS:TAR:1,2014-02-01T11:24:00Z,28.1560,-82.7580,17.34,1111122 
COMPS,ioos:station:USF.COMPS:TAR:1,2014-02-01T11:30:00Z,28.1560,-82.7580,17.21,1111122 
COMPS,ioos:station:USF.COMPS:TAR:1,2014-02-01T11:36:00Z,28.1560,-82.7580,17.33,1111122 
COMPS,ioos:station:USF.COMPS:TAR:1,2014-02-01T11:42:00Z,28.1560,-82.7580,17.44,1111122 
COMPS,ioos:station:USF.COMPS:TAR:1,2014-02-01T11:48:00Z,28.1560,-82.7580,17.52,1111122 
COMPS,ioos:station:USF.COMPS:TAR:1,2014-02-01T11:54:00Z,28.1560,-82.7580,17.7,1111122 
COMPS,ioos:station:USF.COMPS:TAR:1,2014-02-01T12:00:00Z,28.1560,-82.7580,17.78,1111122 
COMPS,ioos:station:USF.COMPS:TAR:1,2014-02-01T12:06:00Z,28.1560,-82.7580,17.79,1111122 
COMPS,ioos:station:USF.COMPS:TAR:1,2014-02-01T12:12:00Z,28.1560,-82.7580,17.89,1111122 
COMPS,ioos:station:USF.COMPS:TAR:1,2014-02-01T12:18:00Z,28.1560,-82.7580,17.98,1111122 
COMPS,ioos:station:USF.COMPS:TAR:1,2014-02-01T12:24:00Z,28.1560,-82.7580,18.11,1111122 
COMPS,ioos:station:USF.COMPS:TAR:1,2014-02-01T12:30:00Z,28.1560,-82.7580,17.95,1111122 
COMPS,ioos:station:USF.COMPS:TAR:1,2014-02-01T12:36:00Z,28.1560,-82.7580,17.93,1111122 
COMPS,ioos:station:USF.COMPS:TAR:1,2014-02-01T12:42:00Z,28.1560,-82.7580,17.94,1111122 
COMPS,ioos:station:USF.COMPS:TAR:1,2014-02-01T12:48:00Z,28.1560,-82.7580,17.93,1111122 
COMPS,ioos:station:USF.COMPS:TAR:1,2014-02-01T12:54:00Z,28.1560,-82.7580,17.97,1111122 
COMPS,ioos:station:USF.COMPS:TAR:1,2014-02-01T13:00:00Z,28.1560,-82.7580,17.93,1111122 
COMPS,ioos:station:USF.COMPS:TAR:1,2014-02-01T13:06:00Z,28.1560,-82.7580,17.76,1111122 
COMPS,ioos:station:USF.COMPS:TAR:1,2014-02-01T13:12:00Z,28.1560,-82.7580,17.66,1111122 
COMPS,ioos:station:USF.COMPS:TAR:1,2014-02-01T13:18:00Z,28.1560,-82.7580,17.66,1111122 
COMPS,ioos:station:USF.COMPS:TAR:1,2014-02-01T13:24:00Z,28.1560,-82.7580,17.75,1111122 
COMPS,ioos:station:USF.COMPS:TAR:1,2014-02-01T13:30:00Z,28.1560,-82.7580,17.76,1111122 
COMPS,ioos:station:USF.COMPS:TAR:1,2014-02-01T13:36:00Z,28.1560,-82.7580,17.93,1111122 
COMPS,ioos:station:USF.COMPS:TAR:1,2014-02-01T13:42:00Z,28.1560,-82.7580,18.0,1111122 
COMPS,ioos:station:USF.COMPS:TAR:1,2014-02-01T13:48:00Z,28.1560,-82.7580,18.04,1111122 
COMPS,ioos:station:USF.COMPS:TAR:1,2014-02-01T13:54:00Z,28.1560,-82.7580,18.15,1111122 
COMPS,ioos:station:USF.COMPS:TAR:1,2014-02-01T14:00:00Z,28.1560,-82.7580,18.47,1111122 
COMPS,ioos:station:USF.COMPS:TAR:1,2014-02-01T14:06:00Z,28.1560,-82.7580,18.65,1111122 
COMPS,ioos:station:USF.COMPS:TAR:1,2014-02-01T14:12:00Z,28.1560,-82.7580,18.24,1111122 
COMPS,ioos:station:USF.COMPS:TAR:1,2014-02-01T14:18:00Z,28.1560,-82.7580,17.65,1111122 
COMPS,ioos:station:USF.COMPS:TAR:1,2014-02-01T14:24:00Z,28.1560,-82.7580,17.52,1111122 
COMPS,ioos:station:USF.COMPS:TAR:1,2014-02-01T14:30:00Z,28.1560,-82.7580,17.46,1111122 
COMPS,ioos:station:USF.COMPS:TAR:1,2014-02-01T14:36:00Z,28.1560,-82.7580,17.64,1111122 
COMPS,ioos:station:USF.COMPS:TAR:1,2014-02-01T14:42:00Z,28.1560,-82.7580,17.62,1111122 
COMPS,ioos:station:USF.COMPS:TAR:1,2014-02-01T14:48:00Z,28.1560,-82.7580,17.61,1111122 
COMPS,ioos:station:USF.COMPS:TAR:1,2014-02-01T14:54:00Z,28.1560,-82.7580,17.77,1111122 
COMPS,ioos:station:USF.COMPS:TAR:1,2014-02-01T15:00:00Z,28.1560,-82.7580,17.8,1111122 
COMPS,ioos:station:USF.COMPS:TAR:1,2014-02-01T15:06:00Z,28.1560,-82.7580,17.91,1111122 
COMPS,ioos:station:USF.COMPS:TAR:1,2014-02-01T15:12:00Z,28.1560,-82.7580,18.07,1111122 
COMPS,ioos:station:USF.COMPS:TAR:1,2014-02-01T15:18:00Z,28.1560,-82.7580,18.16,1111122 
COMPS,ioos:station:USF.COMPS:TAR:1,2014-02-01T15:24:00Z,28.1560,-82.7580,18.41,1111122 
COMPS,ioos:station:USF.COMPS:TAR:1,2014-02-01T15:30:00Z,28.1560,-82.7580,18.5,1111122 
COMPS,ioos:station:USF.COMPS:TAR:1,2014-02-01T15:36:00Z,28.1560,-82.7580,18.56,1111122 
COMPS,ioos:station:USF.COMPS:TAR:1,2014-02-01T15:42:00Z,28.1560,-82.7580,18.66,1111122 
COMPS,ioos:station:USF.COMPS:TAR:1,2014-02-01T15:48:00Z,28.1560,-82.7580,18.8,1111122 
COMPS,ioos:station:USF.COMPS:TAR:1,2014-02-01T15:54:00Z,28.1560,-82.7580,18.85,1111122 
COMPS,ioos:station:USF.COMPS:TAR:1,2014-02-01T16:00:00Z,28.1560,-82.7580,19.01,1111122 
COMPS,ioos:station:USF.COMPS:TAR:1,2014-02-01T16:06:00Z,28.1560,-82.7580,19.14,1111122 
COMPS,ioos:station:USF.COMPS:TAR:1,2014-02-01T16:12:00Z,28.1560,-82.7580,19.17,1111122 
COMPS,ioos:station:USF.COMPS:TAR:1,2014-02-01T16:18:00Z,28.1560,-82.7580,19.21,1111122 
COMPS,ioos:station:USF.COMPS:TAR:1,2014-02-01T16:24:00Z,28.1560,-82.7580,19.75,1111122 
COMPS,ioos:station:USF.COMPS:TAR:1,2014-02-01T16:30:00Z,28.1560,-82.7580,20.23,1111122 
COMPS,ioos:station:USF.COMPS:TAR:1,2014-02-01T16:36:00Z,28.1560,-82.7580,21.22,1111122 
COMPS,ioos:station:USF.COMPS:TAR:1,2014-02-01T16:42:00Z,28.1560,-82.7580,22.16,1111122 
COMPS,ioos:station:USF.COMPS:TAR:1,2014-02-01T16:48:00Z,28.1560,-82.7580,22.85,1111122 
COMPS,ioos:station:USF.COMPS:TAR:1,2014-02-01T16:54:00Z,28.1560,-82.7580,23.32,1111122 
COMPS,ioos:station:USF.COMPS:TAR:1,2014-02-01T17:00:00Z,28.1560,-82.7580,23.66,1111122 
COMPS,ioos:station:USF.COMPS:TAR:1,2014-02-01T17:06:00Z,28.1560,-82.7580,24.02,1111122 
COMPS,ioos:station:USF.COMPS:TAR:1,2014-02-01T17:12:00Z,28.1560,-82.7580,24.44,1111122 
COMPS,ioos:station:USF.COMPS:TAR:1,2014-02-01T17:18:00Z,28.1560,-82.7580,24.18,1111122 
COMPS,ioos:station:USF.COMPS:TAR:1,2014-02-01T17:24:00Z,28.1560,-82.7580,24.45,1111122 
COMPS,ioos:station:USF.COMPS:TAR:1,2014-02-01T17:30:00Z,28.1560,-82.7580,24.46,1111122 
COMPS,ioos:station:USF.COMPS:TAR:1,2014-02-01T17:36:00Z,28.1560,-82.7580,24.72,1111122 
COMPS,ioos:station:USF.COMPS:TAR:1,2014-02-01T17:42:00Z,28.1560,-82.7580,24.85,1111122 
COMPS,ioos:station:USF.COMPS:TAR:1,2014-02-01T17:48:00Z,28.1560,-82.7580,24.9,1111122 
COMPS,ioos:station:USF.COMPS:TAR:1,2014-02-01T17:54:00Z,28.1560,-82.7580,25.14,1111122 
COMPS,ioos:station:USF.COMPS:TAR:1,2014-02-01T18:00:00Z,28.1560,-82.7580,25.58,1111122 
COMPS,ioos:station:USF.COMPS:TAR:1,2014-02-01T18:06:00Z,28.1560,-82.7580,25.84,1111122 
COMPS,ioos:station:USF.COMPS:TAR:1,2014-02-01T18:12:00Z,28.1560,-82.7580,26.01,1111122 
COMPS,ioos:station:USF.COMPS:TAR:1,2014-02-01T18:18:00Z,28.1560,-82.7580,26.36,1111122 
COMPS,ioos:station:USF.COMPS:TAR:1,2014-02-01T18:24:00Z,28.1560,-82.7580,26.35,1111122 
COMPS,ioos:station:USF.COMPS:TAR:1,2014-02-01T18:30:00Z,28.1560,-82.7580,25.75,1111122 
COMPS,ioos:station:USF.COMPS:TAR:1,2014-02-01T18:36:00Z,28.1560,-82.7580,25.77,1111122 
COMPS,ioos:station:USF.COMPS:TAR:1,2014-02-01T18:42:00Z,28.1560,-82.7580,25.92,1111122 
COMPS,ioos:station:USF.COMPS:TAR:1,2014-02-01T18:48:00Z,28.1560,-82.7580,26.21,1111122 
COMPS,ioos:station:USF.COMPS:TAR:1,2014-02-01T18:54:00Z,28.1560,-82.7580,26.67,1111122 
COMPS,ioos:station:USF.COMPS:TAR:1,2014-02-01T19:00:00Z,28.1560,-82.7580,26.96,1111122 
COMPS,ioos:station:USF.COMPS:TAR:1,2014-02-01T19:06:00Z,28.1560,-82.7580,27.16,1111122 
COMPS,ioos:station:USF.COMPS:TAR:1,2014-02-01T19:12:00Z,28.1560,-82.7580,27.25,1111122 
COMPS,ioos:station:USF.COMPS:TAR:1,2014-02-01T19:18:00Z,28.1560,-82.7580,27.4,1111122 
COMPS,ioos:station:USF.COMPS:TAR:1,2014-02-01T19:24:00Z,28.1560,-82.7580,27.83,1111122 
COMPS,ioos:station:USF.COMPS:TAR:1,2014-02-01T19:30:00Z,28.1560,-82.7580,27.54,1111122 
COMPS,ioos:station:USF.COMPS:TAR:1,2014-02-01T19:36:00Z,28.1560,-82.7580,27.14,1111122 
COMPS,ioos:station:USF.COMPS:TAR:1,2014-02-01T19:42:00Z,28.1560,-82.7580,27.03,1111122 
COMPS,ioos:station:USF.COMPS:TAR:1,2014-02-01T19:48:00Z,28.1560,-82.7580,26.93,1111122 
COMPS,ioos:station:USF.COMPS:TAR:1,2014-02-01T19:54:00Z,28.1560,-82.7580,26.89,1111122 
COMPS,ioos:station:USF.COMPS:TAR:1,2014-02-01T20:00:00Z,28.1560,-82.7580,27.05,1111122 
COMPS,ioos:station:USF.COMPS:TAR:1,2014-02-01T20:06:00Z,28.1560,-82.7580,27.11,1111122 
COMPS,ioos:station:USF.COMPS:TAR:1,2014-02-01T20:12:00Z,28.1560,-82.7580,27.06,1111122 
COMPS,ioos:station:USF.COMPS:TAR:1,2014-02-01T20:18:00Z,28.1560,-82.7580,26.81,1111122 
COMPS,ioos:station:USF.COMPS:TAR:1,2014-02-01T20:24:00Z,28.1560,-82.7580,26.71,1111122 
COMPS,ioos:station:USF.COMPS:TAR:1,2014-02-01T20:30:00Z,28.1560,-82.7580,26.41,1111122 
COMPS,ioos:station:USF.COMPS:TAR:1,2014-02-01T20:36:00Z,28.1560,-82.7580,26.2,1111122 
COMPS,ioos:station:USF.COMPS:TAR:1,2014-02-01T20:42:00Z,28.1560,-82.7580,26.06,1111122 
COMPS,ioos:station:USF.COMPS:TAR:1,2014-02-01T20:48:00Z,28.1560,-82.7580,26.01,1111122 
COMPS,ioos:station:USF.COMPS:TAR:1,2014-02-01T20:54:00Z,28.1560,-82.7580,25.94,1111122 
COMPS,ioos:station:USF.COMPS:TAR:1,2014-02-01T21:00:00Z,28.1560,-82.7580,25.51,1111122 
COMPS,ioos:station:USF.COMPS:TAR:1,2014-02-01T21:06:00Z,28.1560,-82.7580,25.05,1111122 
COMPS,ioos:station:USF.COMPS:TAR:1,2014-02-01T21:12:00Z,28.1560,-82.7580,24.68,1111122 
COMPS,ioos:station:USF.COMPS:TAR:1,2014-02-01T21:18:00Z,28.1560,-82.7580,24.24,1111122 
COMPS,ioos:station:USF.COMPS:TAR:1,2014-02-01T21:24:00Z,28.1560,-82.7580,24.0,1111122 
COMPS,ioos:station:USF.COMPS:TAR:1,2014-02-01T21:30:00Z,28.1560,-82.7580,23.47,1111122 
COMPS,ioos:station:USF.COMPS:TAR:1,2014-02-01T21:36:00Z,28.1560,-82.7580,23.18,1111122 
COMPS,ioos:station:USF.COMPS:TAR:1,2014-02-01T21:42:00Z,28.1560,-82.7580,23.0,1111122 
COMPS,ioos:station:USF.COMPS:TAR:1,2014-02-01T21:48:00Z,28.1560,-82.7580,22.87,1111122 
COMPS,ioos:station:USF.COMPS:TAR:1,2014-02-01T21:54:00Z,28.1560,-82.7580,22.72,1111122 
COMPS,ioos:station:USF.COMPS:TAR:1,2014-02-01T22:00:00Z,28.1560,-82.7580,22.51,1111122 
COMPS,ioos:station:USF.COMPS:TAR:1,2014-02-01T22:06:00Z,28.1560,-82.7580,22.26,1111122 
COMPS,ioos:station:USF.COMPS:TAR:1,2014-02-01T22:12:00Z,28.1560,-82.7580,21.89,1111122 
COMPS,ioos:station:USF.COMPS:TAR:1,2014-02-01T22:18:00Z,28.1560,-82.7580,21.37,1111122 
COMPS,ioos:station:USF.COMPS:TAR:1,2014-02-01T22:24:00Z,28.1560,-82.7580,21.28,1111122 
COMPS,ioos:station:USF.COMPS:TAR:1,2014-02-01T22:30:00Z,28.1560,-82.7580,20.74,1111122 
COMPS,ioos:station:USF.COMPS:TAR:1,2014-02-01T22:36:00Z,28.1560,-82.7580,20.43,1111122 
COMPS,ioos:station:USF.COMPS:TAR:1,2014-02-01T22:42:00Z,28.1560,-82.7580,20.08,1111122 
COMPS,ioos:station:USF.COMPS:TAR:1,2014-02-01T22:48:00Z,28.1560,-82.7580,19.77,1111122 
COMPS,ioos:station:USF.COMPS:TAR:1,2014-02-01T22:54:00Z,28.1560,-82.7580,19.62,1111122 
COMPS,ioos:station:USF.COMPS:TAR:1,2014-02-01T23:00:00Z,28.1560,-82.7580,19.43,1111122 
COMPS,ioos:station:USF.COMPS:TAR:1,2014-02-01T23:06:00Z,28.1560,-82.7580,19.29,1111122 
COMPS,ioos:station:USF.COMPS:TAR:1,2014-02-01T23:12:00Z,28.1560,-82.7580,19.2,1111122 
COMPS,ioos:station:USF.COMPS:TAR:1,2014-02-01T23:18:00Z,28.1560,-82.7580,19.02,1111122 
COMPS,ioos:station:USF.COMPS:TAR:1,2014-02-01T23:24:00Z,28.1560,-82.7580,18.98,1111122 
COMPS,ioos:station:USF.COMPS:TAR:1,2014-02-01T23:30:00Z,28.1560,-82.7580,18.71,1111122 
COMPS,ioos:station:USF.COMPS:TAR:1,2014-02-01T23:36:00Z,28.1560,-82.7580,18.7,1111122 
COMPS,ioos:station:USF.COMPS:TAR:1,2014-02-01T23:42:00Z,28.1560,-82.7580,18.69,1111122 
COMPS,ioos:station:USF.COMPS:TAR:1,2014-02-01T23:48:00Z,28.1560,-82.7580,18.6,1111122 
COMPS,ioos:station:USF.COMPS:TAR:1,2014-02-01T23:54:00Z,28.1560,-82.7580,18.56,1111122 
COMPS,ioos:station:USF.COMPS:TAR:1,2014-02-02T00:00:00Z,28.1560,-82.7580,18.52,1111122 
COMPS,ioos:station:USF.COMPS:TAR:1,2014-02-02T00:06:00Z,28.1560,-82.7580,18.43,1111122 
COMPS,ioos:station:USF.COMPS:TAR:1,2014-02-02T00:12:00Z,28.1560,-82.7580,18.43,1111122 
COMPS,ioos:station:USF.COMPS:TAR:1,2014-02-02T00:18:00Z,28.1560,-82.7580,18.43,1111122 
COMPS,ioos:station:USF.COMPS:TAR:1,2014-02-02T00:24:00Z,28.1560,-82.7580,18.45,1111122 
COMPS,ioos:station:USF.COMPS:TAR:1,2014-02-02T00:30:00Z,28.1560,-82.7580,18.2,1111122 
COMPS,ioos:station:USF.COMPS:TAR:1,2014-02-02T00:36:00Z,28.1560,-82.7580,18.16,1111122 
COMPS,ioos:station:USF.COMPS:TAR:1,2014-02-02T00:42:00Z,28.1560,-82.7580,18.09,1111122 
COMPS,ioos:station:USF.COMPS:TAR:1,2014-02-02T00:48:00Z,28.1560,-82.7580,18.03,1111122 
COMPS,ioos:station:USF.COMPS:TAR:1,2014-02-02T00:54:00Z,28.1560,-82.7580,17.89,1111122 
COMPS,ioos:station:USF.COMPS:TAR:1,2014-02-02T01:00:00Z,28.1560,-82.7580,17.88,1111122 
COMPS,ioos:station:USF.COMPS:TAR:1,2014-02-02T01:06:00Z,28.1560,-82.7580,17.84,1111122 
COMPS,ioos:station:USF.COMPS:TAR:1,2014-02-02T01:12:00Z,28.1560,-82.7580,17.74,1111122 
COMPS,ioos:station:USF.COMPS:TAR:1,2014-02-02T01:18:00Z,28.1560,-82.7580,17.61,1111122 
COMPS,ioos:station:USF.COMPS:TAR:1,2014-02-02T01:24:00Z,28.1560,-82.7580,17.58,1111122 
COMPS,ioos:station:USF.COMPS:TAR:1,2014-02-02T01:30:00Z,28.1560,-82.7580,17.49,1111122 
COMPS,ioos:station:USF.COMPS:TAR:1,2014-02-02T01:36:00Z,28.1560,-82.7580,17.49,1111122 
COMPS,ioos:station:USF.COMPS:TAR:1,2014-02-02T01:42:00Z,28.1560,-82.7580,17.4,1111122 
COMPS,ioos:station:USF.COMPS:TAR:1,2014-02-02T01:48:00Z,28.1560,-82.7580,17.38,1111122 
COMPS,ioos:station:USF.COMPS:TAR:1,2014-02-02T01:54:00Z,28.1560,-82.7580,17.38,1111122 
COMPS,ioos:station:USF.COMPS:TAR:1,2014-02-02T02:00:00Z,28.1560,-82.7580,17.38,1111122 
COMPS,ioos:station:USF.COMPS:TAR:1,2014-02-02T02:06:00Z,28.1560,-82.7580,17.34,1111122 
COMPS,ioos:station:USF.COMPS:TAR:1,2014-02-02T02:12:00Z,28.1560,-82.7580,17.25,1111122 
COMPS,ioos:station:USF.COMPS:TAR:1,2014-02-02T02:18:00Z,28.1560,-82.7580,17.25,1111122 
COMPS,ioos:station:USF.COMPS:TAR:1,2014-02-02T02:24:00Z,28.1560,-82.7580,17.38,1111122 
COMPS,ioos:station:USF.COMPS:TAR:1,2014-02-02T02:30:00Z,28.1560,-82.7580,17.21,1111122 
COMPS,ioos:station:USF.COMPS:TAR:1,2014-02-02T02:36:00Z,28.1560,-82.7580,17.25,1111122 
COMPS,ioos:station:USF.COMPS:TAR:1,2014-02-02T02:42:00Z,28.1560,-82.7580,17.25,1111122 
COMPS,ioos:station:USF.COMPS:TAR:1,2014-02-02T02:48:00Z,28.1560,-82.7580,17.25,1111122 
COMPS,ioos:station:USF.COMPS:TAR:1,2014-02-02T02:54:00Z,28.1560,-82.7580,17.23,1111122 
COMPS,ioos:station:USF.COMPS:TAR:1,2014-02-02T03:00:00Z,28.1560,-82.7580,17.11,1111122 
COMPS,ioos:station:USF.COMPS:TAR:1,2014-02-02T03:06:00Z,28.1560,-82.7580,17.12,1111122 